Location: Elmsmere
(40.9284°N, 73.8207°W)
Time: 09:22:22
(UTC+00:00)

USA 307 - Pass Details

Date: 29 October 2020
Orbit: 569 x 579 km, 54.0° (Epoch: 23 November)

Event Time Altitude Azimuth Distance (km) Brightness Sun altitude
Rises 23:27:57 0° 312° (NW) 2,787 7.1 -18.2°
Reaches altitude 10° 23:30:16 10° 317° (NW) 1,884 6.1 -18.6°
Maximum altitude 23:34:28 54° 35° (NE) 695 3.0 -19.4°
Enters shadow 23:35:05 49° 69° (ENE) 740 3.0 -19.6°
